Flag for U.S.A. Weather past 2 weeks in San Diego, California, U.S.A.

Now
54 °F

Partly cloudy.


Feels Like: 53 °F
Forecast: 53 / 62 °F
Wind: 6 mph from East

Location: San Diego - North Island

Current Time: Mar 3, 2015 at 12:06:49 AM

Latest Report: Mar 2, 2015 at 10:52 PM


Visibility: 8 mi

Pressure: 29.97 "Hg

Humidity: 77%

Dew point: 47 °F

Location of San DiegoLocation

Historic Weather in San Diego — Graph

°F

San Diego temperature yesterday

Maximum temperature yesterday: 60 °F (at 12:52 PM)
Minimum temperature yesterday: 51 °F (at 6:52 AM)
Average temperature yesterday: 55 °F

Past Weeks' High & Low Weather Summary

 TemperatureHumidityPressure
High66 °F (Feb 25, 11:52 AM)100% (Feb 15, 10:52 PM)30.23 "Hg (Feb 15, 10:52 PM)
Low49 °F (Feb 24, 4:52 AM)41% (Feb 25, 10:52 AM)29.77 "Hg (Feb 27, 4:52 PM)
Average59 °F75%29.99 "Hg
* Reported Feb 15 10:52 PM — Mar 2 10:52 PM, San Diego, Weather by CustomWeather, © 2015

Note: Actual official high and low records may vary slightly from our data, if they occured in-between our weather recording intervals... More about our weather records

Advertising

San Diego weather history for previous 24 hours

 ConditionsComfort  
Time TempWeatherWind HumidityBarometerVisibility
10:52 PM
Mon, Mar 2
54 °FPartly cloudy.6 mph77%29.97 "Hg8 mi
9:52 PM55 °FLight rain. Passing clouds.7 mph77%29.98 "Hg8 mi
8:52 PM55 °FPassing clouds.3 mph72%29.97 "Hg10 mi
7:52 PM55 °FPassing clouds.6 mph72%29.97 "Hg10 mi
6:52 PM56 °FPartly cloudy.No wind70%29.96 "Hg10 mi
5:52 PM57 °FPartly cloudy.No wind64%29.94 "Hg10 mi
4:52 PM57 °FBroken clouds.3 mph67%29.94 "Hg10 mi
3:52 PM59 °FPartly sunny.3 mph60%29.94 "Hg10 mi
2:52 PM57 °FPartly sunny.8 mph69%29.93 "Hg10 mi
1:52 PM55 °FLight rain. Broken clouds.17 mph74%29.94 "Hg7 mi
12:52 PM60 °FBroken clouds.13 mph65%29.93 "Hg10 mi
11:52 AM59 °FBroken clouds.15 mph69%29.95 "Hg10 mi
10:52 AM58 °FBroken clouds.13 mph70%29.94 "Hg8 mi
9:52 AM58 °FLight rain. Broken clouds.16 mph60%29.94 "Hg7 mi
8:52 AM55 °FPartly sunny.10 mph83%29.94 "Hg8 mi
7:52 AM53 °FPartly sunny.8 mph86%29.92 "Hg10 mi
6:52 AM51 °FPartly sunny.6 mph89%29.92 "Hg8 mi
5:52 AM52 °FPassing clouds.9 mph86%29.91 "Hg8 mi
4:52 AM53 °FMostly cloudy.8 mph83%29.90 "Hg10 mi
3:52 AM53 °FOvercast.7 mph86%29.90 "Hg10 mi
2:52 AM53 °FPassing clouds.8 mph86%29.90 "Hg10 mi
1:59 AM53 °FMostly cloudy.6 mph86%29.92 "Hg10 mi
12:52 AM53 °FMostly cloudy.10 mph86%29.94 "Hg10 mi
Weather by CustomWeather, © 2015

See weather overviewHow to use our weather pages